Location: Newark
(52.2583°N, 7.1190°W)
Time: 07:31:00
(UTC+00:00)

S-56A Canister/Altair - Pass Details

Date: 26 November 2019
Orbit: 632 x 2500 km, 38.9° (Epoch: 15 December)

Event Time Altitude Azimuth Distance (km) Brightness Sun altitude
Rises 17:38:18 0° 254° (WSW) 5,574 14.1 -11.0°
Reaches altitude 10° 17:42:44 10° 247° (WSW) 4,291 12.9 -11.6°
Maximum altitude 17:52:08 34° 189° (S) 2,196 10.1 -13.0°
Drops below altitude 10° 17:58:46 10° 127° (SE) 2,996 10.2 -13.9°
Enters shadow 18:00:09 - 121° (ESE) 3,383 10.4 -14.1°
